Tracking 29932 objects as of 4-Dec-2024
HD Live streaming from Space Station
objects crossing your sky now

STARLINK-31338

Track STARLINK-31338 now!
10-day predictions
STARLINK-31338 is classified as:


NORAD ID: 59156
Int'l Code: 2024-044E
Perigee: 494.0 km
Apogee: 496.5 km
Inclination: 43.0 °
Period: 94.4 minutes
Semi major axis: 6866 km
RCS: Unknown
Launch date: March 4, 2024
Source: United States (US)
Launch site: AIR FORCE EASTERN TEST RANGE (AFETR)
Your satellite tracking list
Your tracking list is empty




NASA's NSSDC Master Catalog

Two Line Element Set (TLE):
1 59156U 24044E   24338.01751290 -.00004483  00000-0 -16169-3 0  9992
2 59156  42.9971 193.0457 0001840 257.4492 102.6153 15.25897900 42971
Source of the keplerian elements: AFSPC